This is the latest recevied weather packets stored in our database for station/object TA2NC-13. If no packets are shown the sender has not sent any weather packets the latest 10 day(s).
| Time | Temp. | Humidity | Pressure | Rain* | Wind** | Luminosity | Snow |
|---|---|---|---|---|---|---|---|
| 1778054401 | 11.11° C | 66% | 1017 hPa | 0 mm | - | - | - |
| 1778053800 | 10° C | 65% | 1017 hPa | 0 mm | - | - | - |
| 1778053201 | 10.56° C | 63% | 1017 hPa | 0 mm | - | - | - |
| 1778052601 | 11.11° C | 61% | 1017 hPa | 0 mm | - | - | - |
| 1778052000 | 12.22° C | 63% | 1017 hPa | 0 mm | - | - | - |
| 1778051401 | 11.67° C | 65% | 1017 hPa | 0 mm | - | - | - |
| 1778050801 | 10.56° C | 67% | 1017 hPa | 0 mm | - | - | - |
| 1778050201 | 11.11° C | 68% | 1017 hPa | 0 mm | - | - | - |
| 1778049600 | 9.44° C | 72% | 1017 hPa | 0 mm | - | - | - |
| 1778049001 | 8.89° C | 74% | 1016 hPa | 0 mm | - | - | - |
| 1778048401 | 8.33° C | 77% | 1016 hPa | 0 mm | - | - | - |
| 1778047801 | 7.78° C | 78% | 1016 hPa | 0 mm | - | - | - |
| 1778047201 | 7.78° C | 78% | 1016 hPa | 0 mm | - | - | - |
| 1778046601 | 7.22° C | 79% | 1016 hPa | 0 mm | - | - | - |
| 1778046001 | 7.22° C | 79% | 1016 hPa | 0 mm | - | - | - |
| 1778045401 | 7.22° C | 79% | 1016 hPa | 0 mm | - | - | - |
| 1778044800 | 7.22° C | 82% | 1016 hPa | 0 mm | - | - | - |
| 1778044201 | 7.22° C | 82% | 1012 hPa | 0 mm | - | - | - |
| 1778043600 | 6.67° C | 83% | 1012 hPa | 0 mm | - | - | - |
| 1778043000 | 6.67° C | 84% | 1012 hPa | 0 mm | - | - | - |
| 1778042400 | 6.11° C | 84% | 1012 hPa | 0 mm | - | - | - |
| 1778041801 | 6.11° C | 84% | 1012 hPa | 0 mm | - | - | - |
| 1778041201 | 6.11° C | 85% | 1012 hPa | 0 mm | - | - | - |
| 1778040601 | 6.11° C | 85% | 1012 hPa | 0 mm | - | - | - |
| 1778040002 | 6.11° C | 86% | 1012 hPa | 0 mm | - | - | - |
* Rain latest hour (hover to see other rain measurements)
** Current wind speed in m/s (hover to see current wind gust speed)